| time (UTC) | temp F | wind direction | speed knots | gust knots | rain 1hr in | rain 24hr in | rain mn in | humidity % | barometer mb |
| 20260505231003 | 78 | 2 | 5.2 | 6.1 | 0.00 | 0.00 | 0.00 | 39 | 1009.9 |
| 20260505230504 | 78 | 2 | 4.3 | 7.8 | 0.00 | 0.00 | 0.00 | 39 | 1010.0 |
| 20260505230003 | 78 | 2 | 6.1 | 16.5 | 0.00 | 0.00 | 0.00 | 39 | 1009.9 |
| 20260505225504 | 78 | 340 | 8.7 | 16.5 | 0.00 | 0.00 | 0.00 | 38 | 1009.8 |
| 20260505225003 | 79 | 199 | 7.8 | 14.8 | 0.00 | 0.00 | 0.00 | 38 | 1009.8 |
| 20260505224504 | 79 | 195 | 7.0 | 7.0 | 0.00 | 0.00 | 0.00 | 37 | 1009.7 |
| 20260505224003 | 79 | 192 | 6.1 | 7.0 | 0.00 | 0.00 | 0.00 | 36 | 1009.7 |
| 20260505223504 | 80 | 185 | 5.2 | 7.0 | 0.00 | 0.00 | 0.00 | 36 | 1009.8 |
| 20260505223003 | 80 | 186 | 6.1 | 17.4 | 0.00 | 0.00 | 0.00 | 35 | 1009.6 |
| 20260505222503 | 80 | 185 | 7.0 | 17.4 | 0.00 | 0.00 | 0.00 | 34 | 1009.6 |
| 20260505222005 | 80 | 185 | 6.1 | 17.4 | 0.00 | 0.00 | 0.00 | 34 | 1009.6 |
| 20260505221504 | 80 | 196 | 7.0 | 9.6 | 0.00 | 0.00 | 0.00 | 33 | 1009.6 |
| 20260505221003 | 80 | 194 | 6.1 | 7.8 | 0.00 | 0.00 | 0.00 | 33 | 1009.6 |
| 20260505220504 | 80 | 189 | 6.1 | 7.0 | 0.00 | 0.00 | 0.00 | 33 | 1009.5 |
| 20260505220005 | 80 | 190 | 6.1 | 7.8 | 0.00 | 0.00 | 0.00 | 32 | 1009.6 |
| 20260505215503 | 80 | 186 | 6.1 | 9.6 | 0.00 | 0.00 | 0.00 | 33 | 1009.4 |
| 20260505215003 | 80 | 196 | 7.0 | 9.6 | 0.00 | 0.00 | 0.00 | 32 | 1009.4 |
| 20260505214504 | 81 | 213 | 7.8 | 11.3 | 0.00 | 0.00 | 0.00 | 32 | 1009.3 |
| 20260505214003 | 81 | 205 | 7.0 | 11.3 | 0.00 | 0.00 | 0.00 | 31 | 1009.3 |
| 20260505213503 | 81 | 187 | 6.1 | 10.4 | 0.00 | 0.00 | 0.00 | 32 | 1009.4 |
| 20260505213003 | 81 | 205 | 7.0 | 14.8 | 0.00 | 0.00 | 0.00 | 32 | 1009.4 |
| 20260505212504 | 81 | 214 | 8.7 | 14.8 | 0.00 | 0.00 | 0.00 | 31 | 1009.4 |
| 20260505212004 | 81 | 208 | 8.7 | 13.0 | 0.00 | 0.00 | 0.00 | 31 | 1009.5 |
| 20260505211003 | 81 | 199 | 7.0 | 14.8 | 0.00 | 0.00 | 0.00 | 30 | 1009.5 |
| 20260505210504 | 81 | 187 | 6.1 | 14.8 | 0.00 | 0.00 | 0.00 | 29 | 1009.4 |
| 20260505210004 | 81 | 187 | 7.0 | 13.9 | 0.00 | 0.00 | 0.00 | 29 | 1009.4 |
| 20260505205503 | 81 | 177 | 7.8 | 13.9 | 0.00 | 0.00 | 0.00 | 28 | 1009.3 |
| 20260505205003 | 81 | 179 | 8.7 | 14.8 | 0.00 | 0.00 | 0.00 | 28 | 1009.3 |
| 20260505204504 | 82 | 196 | 8.7 | 14.8 | 0.00 | 0.00 | 0.00 | 27 | 1009.4 |
| 20260505203504 | 82 | 192 | 7.8 | 15.6 | 0.00 | 0.00 | 0.00 | 27 | 1009.3 |
| 20260505203004 | 82 | 183 | 8.7 | 15.6 | 0.00 | 0.00 | 0.00 | 28 | 1009.2 |
| 20260505202504 | 82 | 187 | 8.7 | 15.6 | 0.00 | 0.00 | 0.00 | 28 | 1009.4 |
| 20260505201503 | 82 | 200 | 11.3 | 13.9 | 0.00 | 0.00 | 0.00 | 27 | 1009.3 |
| 20260505201004 | 82 | 196 | 8.7 | 14.8 | 0.00 | 0.00 | 0.00 | 27 | 1009.4 |
| 20260505200503 | 82 | 201 | 6.1 | 14.8 | 0.00 | 0.00 | 0.00 | 29 | 1009.5 |
| 20260505200003 | 82 | 191 | 8.7 | 19.1 | 0.00 | 0.00 | 0.00 | 30 | 1009.4 |
| 20260505195503 | 82 | 188 | 10.4 | 19.1 | 0.00 | 0.00 | 0.00 | 29 | 1009.4 |
| 20260505195004 | 82 | 190 | 9.6 | 18.2 | 0.00 | 0.00 | 0.00 | 29 | 1009.4 |
| 20260505194504 | 82 | 199 | 8.7 | 15.6 | 0.00 | 0.00 | 0.00 | 30 | 1009.5 |
| 20260505194003 | 82 | 189 | 8.7 | 15.6 | 0.00 | 0.00 | 0.00 | 30 | 1009.5 |
| 20260505193504 | 82 | 178 | 7.0 | 15.6 | 0.00 | 0.00 | 0.00 | 31 | 1009.6 |
| 20260505193003 | 82 | 184 | 5.2 | 7.0 | 0.00 | 0.00 | 0.00 | 31 | 1009.7 |
| 20260505192503 | 82 | 193 | 5.2 | 7.0 | 0.00 | 0.00 | 0.00 | 33 | 1009.6 |
| 20260505191003 | 81 | 205 | 10.4 | 14.8 | 0.00 | 0.00 | 0.00 | 34 | 1009.9 |
| 20260505190503 | 81 | 214 | 8.7 | 14.8 | 0.00 | 0.00 | 0.00 | 33 | 1009.9 |
| 20260505190004 | 81 | 209 | 7.0 | 12.2 | 0.00 | 0.00 | 0.00 | 35 | 1010.0 |
| 20260505185503 | 81 | 204 | 6.1 | 15.6 | 0.00 | 0.00 | 0.00 | 36 | 1010.1 |
| 20260505185004 | 81 | 200 | 7.8 | 15.6 | 0.00 | 0.00 | 0.00 | 35 | 1010.0 |
| 20260505184505 | 81 | 201 | 7.0 | 15.6 | 0.00 | 0.00 | 0.00 | 35 | 1010.3 |
| 20260505184003 | 81 | 194 | 6.1 | 5.2 | 0.00 | 0.00 | 0.00 | 36 | 1010.3 |
| 20260505183503 | 81 | 192 | 7.0 | 12.2 | 0.00 | 0.00 | 0.00 | 36 | 1010.4 |
| 20260505183003 | 81 | 191 | 7.8 | 12.2 | 0.00 | 0.00 | 0.00 | 35 | 1010.5 |
| 20260505182503 | 81 | 201 | 7.0 | 12.2 | 0.00 | 0.00 | 0.00 | 35 | 1010.5 |
| 20260505182003 | 80 | 205 | 6.1 | 9.6 | 0.00 | 0.00 | 0.00 | 37 | 1010.6 |
| 20260505181504 | 80 | 208 | 6.1 | 9.6 | 0.00 | 0.00 | 0.00 | 37 | 1010.7 |
| 20260505181003 | 80 | 211 | 6.1 | 11.3 | 0.00 | 0.00 | 0.00 | 39 | 1010.7 |
| 20260505180503 | 80 | 211 | 5.2 | 11.3 | 0.00 | 0.00 | 0.00 | 39 | 1010.8 |
| 20260505180004 | 80 | 175 | 5.2 | 7.8 | 0.00 | 0.00 | 0.00 | 38 | 1010.9 |
| 20260505175503 | 80 | 183 | 5.2 | 7.8 | 0.00 | 0.00 | 0.00 | 39 | 1010.9 |
| 20260505175003 | 80 | 190 | 4.3 | 7.8 | 0.00 | 0.00 | 0.00 | 39 | 1011.0 |
| 20260505174503 | 80 | 197 | 3.5 | 7.0 | 0.00 | 0.00 | 0.00 | 41 | 1010.9 |
| 20260505174004 | 79 | 189 | 3.5 | 7.0 | 0.00 | 0.00 | 0.00 | 41 | 1011.1 |
| 20260505173003 | 80 | 213 | 6.1 | 8.7 | 0.00 | 0.00 | 0.00 | 41 | 1011.1 |
| 20260505172503 | 79 | 207 | 7.0 | 8.7 | 0.00 | 0.00 | 0.00 | 39 | 1011.1 |
| 20260505172005 | 79 | 197 | 5.2 | 7.8 | 0.00 | 0.00 | 0.00 | 40 | 1011.2 |
| 20260505171503 | 79 | 193 | 4.3 | 6.1 | 0.00 | 0.00 | 0.00 | 40 | 1011.2 |
| 20260505171003 | 79 | 197 | 3.5 | 6.1 | 0.00 | 0.00 | 0.00 | 40 | 1011.2 |
| 20260505170503 | 79 | 178 | 2.6 | 7.8 | 0.00 | 0.00 | 0.00 | 41 | 1011.2 |
| 20260505170003 | 78 | 192 | 4.3 | 9.6 | 0.00 | 0.00 | 0.00 | 41 | 1011.2 |
| 20260505165504 | 79 | 202 | 5.2 | 9.6 | 0.00 | 0.00 | 0.00 | 41 | 1011.2 |
| 20260505165004 | 79 | 187 | 3.5 | 6.1 | 0.00 | 0.00 | 0.00 | 42 | 1011.3 |
| 20260505164503 | 78 | 205 | 3.5 | 7.8 | 0.00 | 0.00 | 0.00 | 42 | 1011.3 |
| 20260505164005 | 78 | 209 | 4.3 | 7.8 | 0.00 | 0.00 | 0.00 | 43 | 1011.3 |
| 20260505163504 | 78 | 201 | 3.5 | 6.1 | 0.00 | 0.00 | 0.00 | 42 | 1011.3 |
| 20260505162004 | 77 | 190 | 3.5 | 5.2 | 0.00 | 0.00 | 0.00 | 44 | 1011.5 |
| 20260505161503 | 76 | 181 | 3.5 | 5.2 | 0.00 | 0.00 | 0.00 | 46 | 1011.5 |
| 20260505161003 | 76 | 152 | 2.6 | 2.6 | 0.00 | 0.00 | 0.00 | 45 | 1011.5 |
| 20260505160504 | 76 | 158 | 2.6 | 4.3 | 0.00 | 0.00 | 0.00 | 45 | 1011.6 |
| 20260505153003 | 75 | 190 | 3.5 | 4.3 | 0.00 | 0.00 | 0.00 | 46 | 1011.9 |
| 20260505152003 | 75 | 155 | 2.6 | 6.1 | 0.00 | 0.00 | 0.00 | 45 | 1012.0 |
| 20260505151003 | 75 | 144 | 1.7 | 1.7 | 0.00 | 0.00 | 0.00 | 46 | 1011.9 |
| 20260505125003 | 66 | 1 | 4.3 | 12.2 | 0.00 | 0.00 | 0.00 | 58 | 1012.4 |
| 20260505124503 | 65 | 2 | 3.5 | 12.2 | 0.00 | 0.00 | 0.00 | 58 | 1012.4 |
| 20260505124004 | 65 | 1 | 3.5 | 5.2 | 0.00 | 0.00 | 0.00 | 59 | 1012.4 |
| 20260505123503 | 65 | 1 | 4.3 | 5.2 | 0.00 | 0.00 | 0.00 | 60 | 1012.3 |
| 20260505123004 | 64 | 1 | 4.3 | 5.2 | 0.00 | 0.00 | 0.00 | 60 | 1012.3 |
| 20260505122504 | 64 | 2 | 4.3 | 9.6 | 0.00 | 0.00 | 0.00 | 60 | 1012.2 |
| 20260505122004 | 64 | 1 | 4.3 | 9.6 | 0.00 | 0.00 | 0.00 | 61 | 1012.2 |
| 20260505121503 | 64 | 2 | 3.5 | 6.1 | 0.00 | 0.00 | 0.00 | 62 | 1012.1 |
| 20260505121003 | 64 | 2 | 4.3 | 6.1 | 0.00 | 0.00 | 0.00 | 62 | 1012.2 |
| 20260505120503 | 64 | 2 | 4.3 | 6.1 | 0.00 | 0.00 | 0.00 | 62 | 1012.3 |
| 20260505120004 | 64 | 1 | 3.5 | 5.2 | 0.00 | 0.00 | 0.00 | 62 | 1012.3 |
| 20260505115504 | 63 | 1 | 3.5 | 6.1 | 0.00 | 0.00 | 0.00 | 63 | 1012.2 |
| 20260505115003 | 63 | 2 | 3.5 | 6.1 | 0.00 | 0.00 | 0.00 | 64 | 1012.2 |
| 20260505114504 | 62 | 1 | 3.5 | 6.1 | 0.00 | 0.00 | 0.00 | 65 | 1012.2 |
| 20260505114004 | 62 | 1 | 3.5 | 3.5 | 0.00 | 0.00 | 0.00 | 66 | 1012.2 |
| 20260505113503 | 62 | 1 | 3.5 | 9.6 | 0.00 | 0.00 | 0.00 | 66 | 1012.2 |
| 20260505113004 | 61 | 1 | 3.5 | 9.6 | 0.00 | 0.00 | 0.00 | 67 | 1012.1 |
| 20260505112505 | 61 | 1 | 3.5 | 7.8 | 0.00 | 0.00 | 0.00 | 67 | 1012.0 |
| 20260505112003 | 61 | 2 | 4.3 | 7.8 | 0.00 | 0.00 | 0.00 | 67 | 1011.9 |
| 20260505111504 | 61 | 1 | 3.5 | 4.3 | 0.00 | 0.00 | 0.00 | 68 | 1011.9 |
| 20260505111004 | 60 | 2 | 3.5 | 6.1 | 0.00 | 0.00 | 0.00 | 69 | 1011.9 |
| 20260505102003 | 61 | 2 | 3.5 | 6.1 | 0.00 | 0.00 | 0.00 | 68 | 1011.7 |
| 20260505101504 | 61 | 1 | 3.5 | 6.1 | 0.00 | 0.00 | 0.00 | 68 | 1011.6 |
| 20260505101003 | 61 | 2 | 3.5 | 5.2 | 0.00 | 0.00 | 0.00 | 68 | 1011.5 |
| 20260505100503 | 61 | 1 | 3.5 | 5.2 | 0.00 | 0.00 | 0.00 | 67 | 1011.5 |
| 20260505100003 | 61 | 1 | 3.5 | 5.2 | 0.00 | 0.00 | 0.00 | 67 | 1011.4 |
| 20260505095504 | 61 | 1 | 3.5 | 4.3 | 0.00 | 0.00 | 0.00 | 67 | 1011.4 |
| 20260505095003 | 61 | 1 | 3.5 | 4.3 | 0.00 | 0.00 | 0.00 | 67 | 1011.3 |
| 20260505094503 | 61 | 1 | 2.6 | 3.5 | 0.00 | 0.00 | 0.00 | 68 | 1011.2 |
| 20260505094004 | 61 | 1 | 2.6 | 3.5 | 0.00 | 0.00 | 0.00 | 68 | 1011.2 |
| 20260505093503 | 60 | 2 | 2.6 | 4.3 | 0.00 | 0.00 | 0.00 | 68 | 1011.2 |
| 20260505093003 | 60 | 1 | 3.5 | 4.3 | 0.00 | 0.00 | 0.00 | 68 | 1011.2 |
| 20260505092503 | 60 | 1 | 2.6 | 4.3 | 0.00 | 0.00 | 0.00 | 69 | 1011.2 |
| 20260505091503 | 60 | 1 | 3.5 | 7.0 | 0.00 | 0.00 | 0.00 | 70 | 1011.3 |
| 20260505091003 | 59 | 2 | 2.6 | 4.3 | 0.00 | 0.00 | 0.00 | 70 | 1011.3 |
| 20260505090503 | 59 | 2 | 2.6 | 4.3 | 0.00 | 0.00 | 0.00 | 70 | 1011.1 |
| 20260505090004 | 59 | 2 | 2.6 | 4.3 | 0.00 | 0.00 | 0.00 | 70 | 1011.1 |
| 20260505085503 | 59 | 1 | 2.6 | 2.6 | 0.00 | 0.00 | 0.00 | 70 | 1011.2 |
| 20260505084504 | 60 | 1 | 0.9 | 2.6 | 0.00 | 0.00 | 0.00 | 69 | 1011.3 |
| 20260505084003 | 60 | 1 | 0.0 | 0.9 | 0.00 | 0.00 | 0.00 | 69 | 1011.3 |
| 20260505083503 | 60 | 1 | 0.9 | 1.7 | 0.00 | 0.00 | 0.00 | 68 | 1011.2 |
| 20260505083003 | 60 | 1 | 0.9 | 2.6 | 0.00 | 0.00 | 0.00 | 68 | 1011.3 |
| 20260505082503 | 60 | 1 | 1.7 | 3.5 | 0.00 | 0.00 | 0.00 | 68 | 1011.3 |
| 20260505081504 | 60 | 1 | 1.7 | 3.5 | 0.00 | 0.00 | 0.00 | 68 | 1011.2 |
| 20260505080504 | 60 | 1 | 3.5 | 7.8 | 0.00 | 0.00 | 0.00 | 68 | 1011.3 |
| 20260505080004 | 60 | 1 | 2.6 | 3.5 | 0.00 | 0.00 | 0.00 | 68 | 1011.3 |
| 20260505075503 | 60 | 1 | 2.6 | 3.5 | 0.00 | 0.00 | 0.00 | 68 | 1011.3 |
| 20260505075004 | 60 | 1 | 2.6 | 3.5 | 0.00 | 0.00 | 0.00 | 67 | 1011.4 |
| 20260505074504 | 60 | 2 | 3.5 | 5.2 | 0.00 | 0.00 | 0.00 | 67 | 1011.3 |
| 20260505074003 | 60 | 1 | 3.5 | 5.2 | 0.00 | 0.00 | 0.00 | 67 | 1011.3 |
| 20260505073503 | 60 | 2 | 2.6 | 3.5 | 0.00 | 0.00 | 0.00 | 67 | 1011.4 |
| 20260505073003 | 60 | 1 | 2.6 | 5.2 | 0.00 | 0.00 | 0.00 | 67 | 1011.3 |
| 20260505072504 | 60 | 2 | 2.6 | 5.2 | 0.00 | 0.00 | 0.00 | 66 | 1011.2 |
| 20260505071503 | 60 | 1 | 2.6 | 3.5 | 0.00 | 0.00 | 0.00 | 66 | 1011.2 |
| 20260505071003 | 61 | 2 | 3.5 | 3.5 | 0.00 | 0.00 | 0.00 | 66 | 1011.2 |
| 20260505070503 | 61 | 1 | 3.5 | 7.0 | 0.00 | 0.00 | 0.00 | 65 | 1011.2 |
| 20260505070003 | 61 | 2 | 3.5 | 7.0 | 0.00 | 0.00 | 0.00 | 65 | 1011.2 |
| 20260505065503 | 61 | 1 | 3.5 | 5.2 | 0.00 | 0.00 | 0.00 | 65 | 1011.2 |
| 20260505065003 | 61 | 2 | 3.5 | 7.0 | 0.00 | 0.00 | 0.00 | 65 | 1011.1 |
| 20260505063503 | 61 | 1 | 3.5 | 7.8 | 0.00 | 0.00 | 0.00 | 65 | 1011.0 |
| 20260505063003 | 61 | 2 | 3.5 | 5.2 | 0.00 | 0.00 | 0.00 | 65 | 1011.1 |
| 20260505062504 | 61 | 1 | 3.5 | 8.7 | 0.00 | 0.00 | 0.00 | 64 | 1011.1 |
| 20260505062003 | 61 | 1 | 3.5 | 8.7 | 0.00 | 0.00 | 0.00 | 64 | 1011.1 |
| 20260505061003 | 61 | 1 | 1.7 | 3.5 | 0.00 | 0.00 | 0.00 | 64 | 1011.1 |
| 20260505060504 | 61 | 1 | 2.6 | 5.2 | 0.00 | 0.00 | 0.00 | 63 | 1011.2 |
| 20260505060004 | 61 | 2 | 2.6 | 5.2 | 0.00 | 0.00 | 0.00 | 63 | 1011.2 |
| 20260505055503 | 61 | 1 | 2.6 | 5.2 | 0.00 | 0.00 | 0.00 | 63 | 1011.1 |
| 20260505055004 | 61 | 1 | 2.6 | 7.0 | 0.00 | 0.00 | 0.00 | 62 | 1011.1 |
| 20260505054504 | 62 | 1 | 2.6 | 7.0 | 0.00 | 0.00 | 0.00 | 62 | 1011.2 |
| 20260505054003 | 62 | 1 | 2.6 | 4.3 | 0.00 | 0.00 | 0.00 | 62 | 1011.2 |
| 20260505053004 | 62 | 1 | 2.6 | 3.5 | 0.00 | 0.00 | 0.00 | 61 | 1011.3 |
| 20260505052504 | 62 | 1 | 1.7 | 3.5 | 0.00 | 0.00 | 0.00 | 61 | 1011.3 |
| 20260505052003 | 62 | 1 | 1.7 | 2.6 | 0.00 | 0.00 | 0.00 | 61 | 1011.3 |
| 20260505051503 | 62 | 1 | 1.7 | 2.6 | 0.00 | 0.00 | 0.00 | 61 | 1011.3 |
| 20260505051005 | 62 | 1 | 1.7 | 2.6 | 0.00 | 0.00 | 0.00 | 61 | 1011.4 |
| 20260505041004 | 62 | 1 | 1.7 | 1.7 | 0.00 | 0.00 | 0.00 | 59 | 1011.2 |
| 20260505040503 | 62 | 2 | 0.9 | 1.7 | 0.00 | 0.00 | 0.00 | 59 | 1011.2 |
| 20260505040005 | 62 | 1 | 0.9 | 0.9 | 0.00 | 0.00 | 0.00 | 58 | 1011.2 |
| 20260505035503 | 62 | 1 | 1.7 | 3.5 | 0.00 | 0.00 | 0.00 | 57 | 1011.2 |
| 20260505035003 | 62 | 1 | 1.7 | 3.5 | 0.00 | 0.00 | 0.00 | 56 | 1011.2 |
| 20260505034503 | 62 | 1 | 1.7 | 1.7 | 0.00 | 0.00 | 0.00 | 55 | 1011.3 |
| 20260505034004 | 62 | 1 | 1.7 | 2.6 | 0.00 | 0.00 | 0.00 | 55 | 1011.2 |
| 20260505033503 | 63 | 1 | 1.7 | 2.6 | 0.00 | 0.00 | 0.00 | 53 | 1011.3 |
| 20260505032504 | 63 | 1 | 1.7 | 1.7 | 0.00 | 0.00 | 0.00 | 51 | 1011.3 |
| 20260505032003 | 63 | 1 | 1.7 | 1.7 | 0.00 | 0.00 | 0.00 | 50 | 1011.3 |
| 20260505031003 | 63 | 2 | 1.7 | 1.7 | 0.00 | 0.00 | 0.00 | 49 | 1011.3 |
| 20260505030504 | 64 | 1 | 1.7 | 1.7 | 0.00 | 0.00 | 0.00 | 48 | 1011.4 |
| 20260505030004 | 64 | 1 | 1.7 | 1.7 | 0.00 | 0.00 | 0.00 | 48 | 1011.3 |
| 20260505025504 | 64 | 1 | 1.7 | 1.7 | 0.00 | 0.00 | 0.00 | 47 | 1011.4 |
| 20260505025004 | 64 | 1 | 1.7 | 2.6 | 0.00 | 0.00 | 0.00 | 47 | 1011.4 |
| 20260505024504 | 64 | 1 | 1.7 | 2.6 | 0.00 | 0.00 | 0.00 | 47 | 1011.6 |
| 20260505023504 | 64 | 1 | 1.7 | 3.5 | 0.00 | 0.00 | 0.00 | 46 | 1011.6 |
| 20260505023003 | 64 | 1 | 0.9 | 1.7 | 0.00 | 0.00 | 0.00 | 46 | 1011.6 |
| 20260505022503 | 65 | 1 | 0.9 | 1.7 | 0.00 | 0.00 | 0.00 | 46 | 1011.7 |
| 20260505022003 | 65 | 1 | 0.9 | 1.7 | 0.00 | 0.00 | 0.00 | 45 | 1011.6 |
| 20260505021504 | 65 | 1 | 0.9 | 1.7 | 0.00 | 0.00 | 0.00 | 45 | 1011.6 |
| 20260505021004 | 65 | 1 | 0.9 | 0.9 | 0.00 | 0.00 | 0.00 | 45 | 1011.6 |
| 20260505020503 | 65 | 1 | 0.9 | 1.7 | 0.00 | 0.00 | 0.00 | 45 | 1011.5 |
| 20260505020003 | 65 | 1 | 0.9 | 1.7 | 0.00 | 0.00 | 0.00 | 45 | 1011.5 |
| 20260505015504 | 66 | 1 | 0.9 | 1.7 | 0.00 | 0.00 | 0.00 | 45 | 1011.5 |
| 20260505015003 | 66 | 1 | 0.9 | 1.7 | 0.00 | 0.00 | 0.00 | 45 | 1011.6 |
| 20260505014503 | 66 | 1 | 0.9 | 2.6 | 0.00 | 0.00 | 0.00 | 45 | 1011.5 |
| 20260505014003 | 66 | 1 | 1.7 | 5.2 | 0.00 | 0.00 | 0.00 | 44 | 1011.6 |
| 20260505013504 | 66 | 1 | 1.7 | 5.2 | 0.00 | 0.00 | 0.00 | 44 | 1011.6 |
| 20260505013003 | 66 | 1 | 1.7 | 1.7 | 0.00 | 0.00 | 0.00 | 44 | 1011.6 |
| 20260505012503 | 66 | 1 | 1.7 | 1.7 | 0.00 | 0.00 | 0.00 | 44 | 1011.5 |
| 20260505011504 | 66 | 1 | 0.9 | 0.9 | 0.00 | 0.00 | 0.00 | 43 | 1011.3 |
| 20260505011004 | 66 | 1 | 0.9 | 0.9 | 0.00 | 0.00 | 0.00 | 43 | 1011.3 |
| 20260505010004 | 67 | 1 | 0.9 | 0.9 | 0.00 | 0.00 | 0.00 | 42 | 1011.2 |
| 20260505005503 | 67 | 1 | 0.9 | 0.9 | 0.00 | 0.00 | 0.00 | 41 | 1011.1 |
| 20260505005004 | 67 | 1 | 0.9 | 2.6 | 0.00 | 0.00 | 0.00 | 41 | 1011.0 |
| 20260505004504 | 67 | 1 | 0.9 | 2.6 | 0.00 | 0.00 | 0.00 | 41 | 1010.9 |
| 20260505004003 | 67 | 1 | 0.9 | 1.7 | 0.00 | 0.00 | 0.00 | 40 | 1010.9 |
| 20260505003503 | 68 | 1 | 0.9 | 1.7 | 0.00 | 0.00 | 0.00 | 39 | 1010.9 |
| 20260505002504 | 68 | 1 | 1.7 | 2.6 | 0.00 | 0.00 | 0.00 | 39 | 1010.8 |
| 20260505002004 | 68 | 1 | 2.6 | 5.2 | 0.00 | 0.00 | 0.00 | 39 | 1010.7 |
| 20260505001503 | 68 | 2 | 2.6 | 5.2 | 0.00 | 0.00 | 0.00 | 39 | 1010.7 |
| 20260505000504 | 68 | 2 | 2.6 | 5.2 | 0.00 | 0.00 | 0.00 | 38 | 1010.8 |
| 20260505000004 | 69 | 2 | 2.6 | 5.2 | 0.00 | 0.00 | 0.00 | 38 | 1010.8 |
| 20260504235503 | 69 | 2 | 1.7 | 5.2 | 0.00 | 0.00 | 0.00 | 37 | 1010.7 |
| 20260504234505 | 69 | 1 | 2.6 | 4.3 | 0.00 | 0.00 | 0.00 | 37 | 1010.6 |
| 20260504234003 | 70 | 2 | 2.6 | 4.3 | 0.00 | 0.00 | 0.00 | 36 | 1010.6 |
| 20260504233503 | 70 | 1 | 2.6 | 4.3 | 0.00 | 0.00 | 0.00 | 36 | 1010.5 |
| 20260504233004 | 70 | 2 | 2.6 | 4.3 | 0.00 | 0.00 | 0.00 | 36 | 1010.5 |
| 20260504232503 | 70 | 1 | 2.6 | 8.7 | 0.00 | 0.00 | 0.00 | 35 | 1010.4 |
| 20260504232003 | 70 | 2 | 4.3 | 9.6 | 0.00 | 0.00 | 0.00 | 35 | 1010.4 |
| 20260504231503 | 70 | 2 | 4.3 | 9.6 | 0.00 | 0.00 | 0.00 | 35 | 1010.4 |